{"data":{"norad_id":67636,"intl_designator":"2026-020V","name":"STARLINK-36624","alt_names":[],"object_type":"PAYLOAD","status":"ACTIVE","operator":null,"country":"US","launch_date":"2026-01-30","launch_site_code":"AFETR","launch_vehicle":null,"mission":null,"orbit_class":"UNKNOWN","rcs_meters":null,"size_class":null,"mass_kg":null,"dimensions":null,"purposes":["comms"],"wikipedia_slug":null,"has_3d_model":false,"image_url":null,"decayed_at":null,"tle_current":{"epoch":"2026-05-25T03:57:13.849632Z","epoch_age_seconds":60536,"freshness":"FRESH","line1":"1 67636U 26020V   26145.16474363  .00021213  00000+0  77760-3 0  9998","line2":"2 67636  43.0038  67.5139 0001330 269.3170  90.7529 15.27603979 17812","mean_motion":15.27603979,"eccentricity":0.000133,"inclination_deg":43.0038,"raan_deg":67.5139,"arg_perigee_deg":269.317,"mean_anomaly_deg":90.7529,"bstar":0.0007776,"rev_number":1781,"period_min":94.265268996134,"perigee_km":482.06476702522,"apogee_km":483.88982342775,"semimajor_km":6861.1142952265,"source":"CELESTRAK","updated_at":"2026-05-25T13:38:21.653368Z"}}}